Regional Weather Roundup
Issued by NWS

Home | Current Version | Previous Version | Graphics & Text | Print | Product List | Glossary On
Versions: 1 2 3 4 5 6 7 8 9 10 11 12 13 14 15 16 17 18 19 20 21 22 23 24 25 26 27 28 29 30 31 32 33 34 35 36 37 38 39 40 41 42 43 44 45 46 47 48 49 50
000
ASUS43 KDTX 271110
RWRMI
MICHIGAN HOURLY REGIONAL WEATHER ROUNDUP
NATIONAL WEATHER SERVICE DETROIT/PONTIAC MI
700 AM EDT THU AUG 27 2015

NOTE: "FAIR" INDICATES FEW OR NO CLOUDS BELOW 12,000 FEET WITH NO
SIGNIFICANT WEATHER AND/OR OBSTRUCTION TO VISIBILITY.

MIZ047>049-052>055-059>063-066>070-074>076-081>083-271200-
SOUTHEAST LOWER MICHIGAN

CITY           SKY/WX    TMP DP  RH WIND       PRES   REMARKS
ADRIAN         FOG       50  48  93 N3        30.20R VSB 3/4
ALMA           CLOUDY    58  55  89 CALM      30.19S
ANN ARBOR      FOG       48  47  96 CALM      30.19R VSB<1/4
BAD AXE        CLOUDY    56  52  87 CALM      30.18R
DETROIT CITY   CLEAR     56  52  86 NW3       30.18R
DETROIT        PTCLDY    54  52  93 W5        30.19R
FLINT          PTCLDY    54  51  90 W3        30.19R
GROSSE ILE     CLEAR     55  54  94 NW3       30.17R
HILLSDALE      FOG       49  49 100 CALM      30.20R VSB<1/4
HOWELL         MOCLDY    50  49  98 CALM      30.19R

CITY           SKY/WX    TMP DP  RH WIND       PRES   REMARKS
JACKSON        PTCLDY    49  48  97 CALM      30.20R
LAMBERTVILLE   FOG       53  50  92 CALM      30.19R VSB 3/4
LANSING        CLOUDY    50  49  96 CALM      30.20R
LAPEER         NOT AVBL
MASON          PTCLDY    47  46  99 CALM      30.19R FOG
MONROE         CLEAR     51  50  97 N3        30.18R
MT. CLEMENS    CLOUDY    57  54  89 W6        30.16R
PONTIAC        MOCLDY    54  52  93 W3        30.17R
PORT HOPE        N/A     58  51  78 W8        30.15R
PORT HURON     CLOUDY    57  55  94 CALM      30.17R
TRI CITIES     CLOUDY    59  54  83 CALM      30.20R
YPSILANTI      CLEAR     54  49  83 CALM      30.19R
$$
MIZ043>046-050>051-056>058-064>065-071>073-077>080-271200-
SOUTHWEST LOWER MICHIGAN

CITY           SKY/WX    TMP DP  RH WIND       PRES   REMARKS
BATTLE CREEK   FOG       50  49  96 CALM      30.20R VSB 1/4
BENTON HARBOR  CLEAR     50  49  96 CALM      30.18S
BIG RAPIDS     CLOUDY    55  54  97 CALM      30.18R
COLDWATER      FOG       50  50 100 CALM      30.19R VSB 1/2
HOLLAND        CLOUDY    52  50  93 CALM      30.20R
GRAND RAPIDS   CLOUDY    54  53  97 N3        30.20R
KALAMAZOO      CLEAR     49  46  90 CALM      30.20R
MARSHALL       CLOUDY    48  46  93 CALM      30.19R VSB 1/4
MUSKEGON       CLOUDY    54  50  86 SE5       30.19S
$$
MIZ016>042-271200-
NORTHERN LOWER MICHIGAN

CITY           SKY/WX    TMP DP  RH WIND       PRES   REMARKS
ALPENA         CLOUDY    55  50  83 CALM      30.17R
BEAVER ISLAND  CLOUDY    44  43  98 CALM      30.17R
BELLAIRE       CLOUDY    54  52  94 CALM      30.17S
CADILLAC       CLOUDY    55  53  91 CALM      30.17S
CHARLEVOIX     CLOUDY    55  53  93 S5        30.19S
FRANKFORT      SUNNY     52  51  97 CALM      30.16R
GAYLORD        MOCLDY    49  48  97 CALM      30.18R
GRAYLING       CLOUDY    51  50  96 CALM      30.18S
HARBOR SPRINGS CLOUDY    53  51  94 CALM      30.17R
HOUGHTON LAKE  CLOUDY    54  51  90 CALM      30.18S
MANISTEE       MOCLDY    52  46  82 CALM      30.18R
OSCODA         CLOUDY    55  51  84 NW3       30.17R
PELLSTON       CLOUDY    47  46  97 CALM      30.18R
TRAVERSE CITY  CLOUDY    59  54  83 CALM      30.16R
$$
MIZ007>008-015-271200-
EASTERN UPPER MICHIGAN

CITY           SKY/WX    TMP DP  RH WIND       PRES   REMARKS
KINROSS        CLOUDY    50  48  93 W3        30.16R
MACKINAC ISLAN CLOUDY    52  50  92 CALM      30.17R
NEWBERRY       CLOUDY    50  49  98 CALM      30.16R
S. S. MARIE    CLOUDY    54  52  93 W6        30.14R
$$
MIZ004>006-011>014-085-271200-
CENTRAL UPPER MICHIGAN

CITY           SKY/WX    TMP DP  RH WIND       PRES   REMARKS
MANISTIQUE     CLEAR     39  39  97 CALM      30.17R FOG
ESCANABA       CLOUDY    48  46  93 CALM      30.16R VSB 1/4
MENOMINEE      CLEAR     46  45  93 NW3       30.16R
SAWYER-GWINN   FOG       39  37  93 CALM      30.15R VSB 1/2
$$
MIZ001>003-009>011-084-271200-
WESTERN UPPER MICHIGAN

CITY           SKY/WX    TMP DP  RH WIND       PRES   REMARKS
IRON MOUNTAIN  FOG       47  47 100 CALM      30.16R VSB 1/4
HOUGHTON       CLEAR     43  41  93 W3        30.14R
COPPER HARBOR    N/A     51  47  86 NW3       30.13R
IRONWOOD       CLEAR     37  37 100 CALM      30.13S
$$

ABBREVIATIONS USED IN REMARKS
   TC - TEMPERATURE IN CELSIUS
  WCI - WIND CHILL INDEX
   HX - HEAT INDEX
  VSB - VISIBILITY




USA.gov is the U.S. government's official web portal to all federal, state and local government web resources and services.